[[{"header":{"parameterUnit":"m.s-1","parameterCategory":1,"la1":30.2991,"la2":30.254,"lo1":-89.0895,"lo2":-89.0444,"dy":0.0017,"dx":0.0017,"nx":28,"ny":28,"refTime":"2025-02-01T03:00:00:Z","depth":0,"parameterNumber":2,"parameterNumberName":"U-component_of_WINDS"},"data":[0,0,0,0,0,0,0,0,0,0,0,0,0,0,0,0,0,0,0,0,0,0,0,0,0,0,0,0,0,0,0,0,0,0,0,0,0,0,0,0,0,0,0,0,0,0,0,0,0,0,0,0,0,0,0,0,0,0,3.6907,3.6905,0,3.6731,3.6729,3.6726,3.6549,3.6546,3.6544,3.6542,3.6357,3.6354,3.6351,0,0,0,0,0,0,0,0,0,0,0,0,0,3.7089,3.7086,3.6907,3.6905,3.6903,3.6731,3.6728,3.6726,3.6549,3.6546,3.6544,3.6541,3.6358,3.6354,3.6351,0,0,0,0,0,0,0,0,0,0,0,0,0,3.6971,3.7086,3.6907,3.6794,3.6782,3.6731,3.6728,3.6725,3.655,3.6546,3.6543,3.6539,3.6359,3.6355,3.6351,3.6397,0,0,3.6338,3.6336,0,0,0,0,0,0,0,0,3.6978,3.6964,3.6813,3.6802,3.6788,3.6658,3.6724,3.6615,3.6551,3.6638,3.6542,3.6538,3.646,3.6447,3.6422,3.6388,3.638,3.6338,3.6335,3.6334,3.6332,0,0,0,0,0,0,0,3.6986,3.6971,3.6837,3.6811,3.6796,3.6751,3.673,3.6703,3.6571,3.663,3.6617,3.6599,3.6452,3.6426,3.6416,3.6377,3.6338,3.6334,3.6332,3.633,3.6376,3.6379,0,0,0,0,0,0,3.7012,3.6979,3.6842,3.6832,3.6876,3.6751,3.6728,3.6703,3.657,3.6547,3.6602,3.6591,3.6435,3.6421,3.6409,3.6456,3.6334,3.633,3.6327,3.6372,3.6377,3.6381,0,0,0,0,0,0,3.7017,3.7002,3.685,3.6902,3.6879,3.6751,3.6726,3.6702,3.6675,3.6549,3.6524,3.6599,3.6431,3.6414,3.6402,3.6447,3.6328,3.6324,3.6368,3.6373,3.6379,3.6549,0,0,0,0,0,0,3.7023,3.7004,3.7021,3.6904,3.6877,3.6847,3.6728,3.6701,3.6669,3.6653,3.654,3.6518,3.6427,3.6409,3.6398,3.6439,3.6321,3.6363,3.637,3.6377,3.6539,3.656,3.6578,0,0,0,0,0,3.703,3.7074,3.7022,3.7007,3.6895,3.685,3.6834,3.673,3.6674,3.6689,3.6609,3.6522,3.6444,3.6409,3.6395,3.6436,3.636,3.6368,3.6376,3.653,3.6556,3.6578,0,0,0,0,0,0,3.7197,3.7056,3.6998,3.7005,3.6942,3.682,3.6836,3.676,3.6709,3.6696,3.6568,3.6544,3.6547,3.6489,3.6453,3.6475,3.639,3.6396,3.6512,3.6535,3.6554,3.6568,3.6318,0,0,0,0,0,3.7235,3.7212,3.7089,3.7108,3.7079,3.6964,3.694,3.6866,3.6794,3.6765,3.6683,3.6616,3.6576,3.6552,3.6508,3.6531,3.6504,3.6552,3.6571,3.6588,3.6594,3.6604,3.6625,3.6408,3.6407,3.6407,0,0,3.7313,3.7233,3.7225,3.714,3.7081,3.706,3.6942,3.6923,3.6905,3.6761,3.6746,3.6684,3.66,3.6606,3.6605,3.6559,3.6649,3.6598,3.6612,3.6609,3.6615,3.6636,3.6654,3.6413,3.6412,3.6411,0,0,3.7444,3.7381,3.7391,3.7336,3.725,3.7174,3.7177,3.7068,3.7022,3.7005,3.6898,3.6875,3.6809,3.6754,3.6718,3.6834,3.6753,3.6823,3.6924,3.6935,3.6953,3.6967,3.701,3.7027,3.683,3.683,3.6831,0,3.755,3.7514,3.7405,3.7394,3.736,3.7232,3.7242,3.7193,3.7097,3.7077,3.7027,3.6945,3.6878,3.6872,3.6901,3.6875,3.6875,3.6835,3.6959,3.6973,3.6985,3.7024,3.704,3.684,3.6838,3.6838,3.6837,0,3.7651,3.7628,3.7646,3.756,3.7528,3.7528,3.7419,3.74,3.733,3.7259,3.7245,3.7162,3.7101,3.7094,3.7023,3.7078,3.7052,3.6983,3.6895,3.7016,3.7051,3.7065,3.6853,3.6849,3.6847,3.6844,0,0,3.7879,3.7736,3.7745,3.7706,3.7604,3.7583,3.7578,3.7521,3.7508,3.7447,3.744,3.7389,3.7326,3.7285,3.7208,3.7218,3.7318,3.7147,3.7143,3.7183,3.7375,3.7429,3.7448,3.7264,3.7267,3.7269,3.7383,0,3.7993,3.7977,3.788,3.7892,3.7871,3.7751,3.7746,3.7684,3.7619,3.7591,3.7517,3.7485,3.7402,3.7378,3.7383,3.7305,3.7355,3.7295,3.7256,3.7256,3.7282,3.7466,3.7521,3.7632,3.7396,3.7398,3.7399,0,3.8122,3.8074,3.8085,3.7987,3.7974,3.7972,3.7913,3.7888,3.7815,3.7767,3.7725,3.7639,3.7628,3.7547,3.7529,3.7491,3.747,3.743,3.7432,3.7424,3.7335,3.7464,3.7665,3.7683,3.7419,3.7418,3.7416,0,3.829,3.8226,3.8225,3.8195,3.808,3.8082,3.8034,3.7958,3.7931,3.788,3.7861,3.7809,3.7781,3.7742,3.7646,3.7595,3.764,3.755,3.76,3.7603,3.7614,3.7615,3.7816,3.7601,3.7601,3.76,3.76,0,3.8427,3.8439,3.83,3.8299,3.8309,3.8199,3.8212,3.8152,3.8087,3.8073,3.7965,3.7954,3.7827,3.7802,3.7726,3.7725,3.7712,3.7674,3.7653,3.7683,3.7689,3.7667,3.7657,3.7605,3.7604,3.7603,3.7602,0,3.8615,3.8522,3.8514,3.8407,3.8381,3.8394,3.8302,3.8297,3.8227,3.8211,3.8201,3.8091,3.8056,3.7957,3.7895,3.7845,3.7865,3.7827,3.7891,3.7878,3.7934,3.7931,3.8129,3.815,3.7922,3.7924,3.7926,0,3.8709,3.8715,3.8612,3.8596,3.8553,3.8528,3.8501,3.8394,3.837,3.8291,3.8296,3.8254,3.8214,3.8164,3.8078,3.8032,3.7991,3.8064,3.7983,3.8015,3.7994,3.7995,3.7996,3.8082,3.8085,3.8087,3.8089,0,3.8885,3.884,3.8806,3.8758,3.873,3.8686,3.8636,3.8629,3.8508,3.8487,3.8452,3.8422,3.8362,3.8321,3.8262,3.8212,3.8132,3.8116,3.8125,3.8156,3.8193,3.8175,3.7939,3.8111,3.8109,3.8107,3.8106,3.8105,3.9029,3.9031,3.8959,3.8926,3.8878,3.8835,3.8826,3.8757,3.8726,3.8671,3.8609,3.8582,3.8511,3.8424,3.838,3.8357,3.8314,3.8327,3.833,3.8335,3.835,3.8198,3.8346,3.8345,3.8344,3.8344,3.8343,0,3.9201,3.915,3.9121,3.9056,3.9031,3.896,3.8902,3.8885,3.8863,3.8805,3.877,3.8731,3.8692,3.8606,3.8559,3.8557,3.8519,3.8549,3.8547,3.8538,3.8391,3.8388,3.858,3.858,3.858,3.858,3.858,3.858,3.9288,3.9288,3.9235,3.9211,3.9159,3.9133,3.9107,3.9067,3.9021,3.8983,3.8951,3.8896,3.8827,3.8775,3.8737,3.8712,3.87,3.8742,3.8706,3.857,3.8548,3.8526,3.8523,3.874,3.8741,3.8855,3.8856,3.8857]},{"header":{"parameterUnit":"m.s-1","parameterCategory":1,"la1":30.2991,"la2":30.254,"lo1":-89.0895,"lo2":-89.0444,"dy":0.0017,"dx":0.0017,"nx":28,"ny":28,"refTime":"2025-02-01T03:00:00:Z","depth":0,"parameterNumber":3,"parameterNumberName":"V-component_of_WINDS"},"data":[0,0,0,0,0,0,0,0,0,0,0,0,0,0,0,0,0,0,0,0,0,0,0,0,0,0,0,0,0,0,0,0,0,0,0,0,0,0,0,0,0,0,0,0,0,0,0,0,0,0,0,0,0,0,0,0,0,0,0.9175,0.9179,0,0.9541,0.9546,0.955,0.9679,0.9678,0.9676,0.9675,1.006,1.0071,1.0083,0,0,0,0,0,0,0,0,0,0,0,0,0,0.8597,0.8607,0.9175,0.918,0.9184,0.9541,0.9546,0.9551,0.9679,0.9678,0.9676,0.9674,1.0056,1.007,1.0084,0,0,0,0,0,0,0,0,0,0,0,0,0,0.8894,0.861,0.9174,0.9291,0.9305,0.954,0.9546,0.9552,0.968,0.9678,0.9676,0.9674,1.0052,1.0069,1.0086,1.0234,0,0,1.0139,1.0146,0,0,0,0,0,0,0,0,0.8877,0.8915,0.9269,0.9283,0.93,0.9562,0.9483,0.9781,0.968,0.9538,0.9675,0.9673,0.9897,0.9927,1.0,1.0252,1.0269,1.014,1.0151,1.0158,1.0163,0,0,0,0,0,0,0,0.8856,0.89,0.932,0.9274,0.9293,0.9328,0.9368,0.954,0.9725,0.955,0.956,0.9601,0.9905,0.9983,1.001,1.0274,1.014,1.0155,1.0166,1.0173,1.0667,1.067,0,0,0,0,0,0,0.8815,0.8882,0.9309,0.9331,0.9078,0.934,0.9385,0.948,0.9723,0.9758,0.9603,0.9606,0.9955,0.999,1.0024,1.0215,1.0158,1.0174,1.0184,1.0665,1.0668,1.0671,0,0,0,0,0,0,0.8802,0.8851,0.9294,0.911,0.9169,0.9352,0.9458,0.9488,0.9567,0.9763,0.9797,0.9648,0.9955,1.0,1.0181,1.023,1.0182,1.0198,1.0661,1.0666,1.067,1.0595,0,0,0,0,0,0,0.8785,0.8846,0.8902,0.911,0.9178,0.9441,0.9461,0.9497,0.9595,0.9603,0.9815,0.9848,0.9956,1.0154,1.0198,1.0253,1.0211,1.0658,1.0663,1.0668,1.0594,1.0597,1.0598,0,0,0,0,0,0.8764,0.8869,0.8904,0.8955,0.9251,0.9443,0.9483,0.9602,0.9599,0.9658,0.9784,0.9841,1.0217,1.0171,1.0222,1.0283,1.0655,1.0662,1.0668,1.0594,1.0596,1.0598,0,0,0,0,0,0,0.8666,0.8898,0.894,0.9115,0.9258,0.9464,0.9543,0.9601,0.9751,0.9752,0.9897,0.9944,1.0113,1.0217,1.0162,1.044,1.044,1.0456,1.0366,1.037,1.0372,1.0345,1.0226,0,0,0,0,0,0.8664,0.8797,0.8995,0.913,0.9199,0.9358,0.9447,0.9526,0.9681,0.9744,0.9883,1.0034,1.0186,1.0284,1.0435,1.0609,1.0659,1.0676,1.0678,1.0679,1.0692,1.0793,1.0804,1.0691,1.0691,1.0691,0,0,0.8664,0.8807,0.8883,0.9114,0.9234,0.9372,0.9409,0.9553,0.9658,0.9767,0.9945,1.0052,1.0231,1.0408,1.0494,1.05,1.0734,1.0687,1.0686,1.0699,1.08,1.0811,1.082,1.0696,1.0695,1.0694,0,0,0.8732,0.8853,0.8979,0.9098,0.9277,0.9382,0.9412,0.961,0.9685,0.9865,0.9949,1.0077,1.0336,1.046,1.0557,1.0671,1.073,1.0716,1.0727,1.0824,1.0833,1.0841,1.0883,1.0896,1.0728,1.0728,1.0728,0,0.8709,0.8917,0.9037,0.9177,0.9277,0.9378,0.9508,0.9619,0.984,0.9909,0.991,1.0237,1.0365,1.0573,1.06,1.0675,1.0716,1.0693,1.0821,1.0831,1.0841,1.0882,1.0898,1.0725,1.0726,1.0726,1.0726,0,0.888,0.9023,0.9104,0.931,0.942,0.9554,0.9698,0.9795,0.9864,0.9969,1.0152,1.0308,1.0493,1.0548,1.0619,1.0767,1.0765,1.0792,1.0796,1.0847,1.0888,1.0905,1.0721,1.0722,1.0723,1.0724,0,0,0.89,0.9169,0.9197,0.9292,0.9498,0.9612,0.9752,0.9928,1.0009,1.0158,1.028,1.0496,1.0522,1.0632,1.0718,1.0802,1.0883,1.082,1.0826,1.0827,1.1058,1.1036,1.1053,1.0922,1.0926,1.0929,1.1043,0,0.8996,0.9246,0.9358,0.9559,0.9693,0.979,0.9912,1.0053,1.0155,1.0286,1.0401,1.0551,1.0574,1.0641,1.0728,1.0854,1.0932,1.0848,1.1041,1.1046,1.0994,1.1074,1.1053,1.1153,1.106,1.1063,1.1065,0,0.9142,0.9287,0.9499,0.9688,0.9749,0.9856,1.0027,1.015,1.0312,1.0381,1.0502,1.0583,1.0737,1.0728,1.0942,1.0882,1.0968,1.1042,1.1049,1.1073,1.1059,1.1102,1.1188,1.1203,1.1091,1.1089,1.1087,0,0.9135,0.9384,0.9544,0.9622,0.9846,0.9919,1.0016,1.0176,1.0275,1.0425,1.0491,1.0659,1.0751,1.088,1.1005,1.0987,1.1208,1.121,1.1272,1.1269,1.1316,1.1311,1.1418,1.1368,1.1368,1.1367,1.1367,0,0.9232,0.9358,0.9543,0.9642,0.9787,0.9916,1.0058,1.0163,1.0304,1.0427,1.0522,1.0636,1.0794,1.0929,1.1028,1.1191,1.1232,1.1294,1.1319,1.1286,1.1278,1.1346,1.1343,1.1372,1.1371,1.137,1.1369,0,0.925,0.9378,0.9559,0.9754,0.9807,0.9905,1.0075,1.0176,1.0281,1.0435,1.0479,1.0646,1.081,1.0947,1.1163,1.123,1.1399,1.1429,1.1343,1.1357,1.1411,1.1405,1.1566,1.1595,1.1523,1.1524,1.1524,0,0.9303,0.9402,0.9607,0.9694,0.9789,0.9928,1.0029,1.016,1.0261,1.0453,1.0531,1.07,1.0843,1.1099,1.1242,1.1408,1.1443,1.1488,1.1469,1.1433,1.1446,1.1438,1.145,1.149,1.149,1.149,1.149,0,0.9384,0.9443,0.9581,0.9743,0.9859,0.9993,1.0131,1.0197,1.0355,1.0464,1.063,1.074,1.0958,1.1126,1.1307,1.1411,1.1478,1.1494,1.1518,1.1486,1.1433,1.1463,1.1348,1.1491,1.1491,1.1491,1.1491,1.1491,0.9423,0.9516,0.9674,0.9826,0.9942,1.0067,1.0171,1.0288,1.0428,1.0613,1.0683,1.0853,1.1015,1.1264,1.1368,1.1505,1.1515,1.1548,1.1557,1.1564,1.1559,1.1409,1.1539,1.1539,1.1539,1.1539,1.1539,0,0.951,0.9616,0.9754,0.9941,1.0061,1.0109,1.0263,1.0361,1.0508,1.0651,1.0788,1.098,1.1143,1.1297,1.1469,1.1549,1.1584,1.159,1.1586,1.1609,1.1541,1.1504,1.1558,1.1558,1.1558,1.1558,1.1558,1.1558,0.957,0.9729,0.9805,1.0024,1.0131,1.0295,1.0379,1.0497,1.0611,1.0819,1.0953,1.1051,1.1201,1.1383,1.1536,1.1577,1.1637,1.1634,1.1684,1.1618,1.1614,1.1611,1.1577,1.1646,1.1646,1.1742,1.1743,1.1743]}]]